#timestamp,LO_Frequency,Hit 
1501848015.3,286046986.8,N
1501848035.2,286046984.1,N
1501848055.9,286046983.8,N
1501848075.7,286046986.7,N
1501848095.6,286046984.8,N
1501848115.4,286046984.6,N
1501848135.2,286046983.0,N
1501848155.1,286046982.4,N
1501848156.0,286046982.4,N
1501848175.8,286046984.1,N
1501848195.6,286046984.2,N
1501848215.5,286046986.8,N
1501848235.3,286046984.8,N
1501848255.1,286046984.0,N
1501848275.8,286046984.9,N
1501848295.7,286046986.7,N
1501848315.5,286046986.8,N
1501848335.3,286046984.0,N
1501848355.2,286046986.3,N
1501848375.9,286046986.8,N
1501848395.7,286046983.9,N
1501848415.6,286046983.7,N
1501848435.4,286046986.2,N
1501848455.2,286046986.7,N
1501848475.1,286046986.3,N
1501848476.0,286046986.3,N
1501848495.8,286046984.2,N
1501848515.6,286046984.8,N
1501848535.4,286046982.6,N
1501848555.3,286046984.7,N
1501848575.1,286046984.6,N
1501848595.8,286046985.1,N
1501848615.7,286046984.8,N
1501848635.5,286046985.2,N
1501848655.3,286046984.4,N
1501848675.2,286046984.8,N
1501848695.9,286046982.7,N
1501848715.7,286046982.1,N
1501848735.6,286046984.4,N
1501848755.4,286046982.7,N
1501848775.2,286046984.3,N
1501848795.0,286046984.1,N
1501848796.0,286046984.1,N
1501848815.8,286046984.6,N
1501848835.6,286046985.0,N
1501848855.4,286046984.8,N
1501848875.3,286046984.3,N
1501848895.1,286046982.1,N
1501848915.8,286046980.5,Y
1501848935.7,286047003.3,N
1501848955.5,286047005.6,N
1501848975.3,286047003.2,N
1501848995.2,286047003.9,N
1501849015.0,286047005.7,N
1501849015.9,286047005.7,N
1501849035.7,286047003.3,N
1501849055.6,286047002.9,N
1501849075.4,286047005.9,N
1501849095.2,286047001.8,N
1501849115.1,286047003.4,N
1501849116.0,286047003.4,N
1501849135.8,286047004.2,N
1501849155.6,286047002.9,N
1501849175.5,286047003.0,N
1501849195.3,286047005.8,N
1501849215.1,286047005.9,N
1501849235.9,286047003.1,N
1501849255.7,286047003.5,N
1501849275.5,286047003.7,N
1501849295.3,286047003.6,N
1501849315.2,286047001.4,N
1501849335.0,286047004.4,N
1501849335.9,286047004.4,N
1501849355.7,286047002.2,N
1501849375.6,286047003.4,N
1501849395.4,286047005.6,N
1501849415.2,286047005.8,N
1501849435.1,286047004.4,N
1501849436.0,286047004.4,N
1501849455.8,286047005.6,N
1501849475.6,286047003.0,N
1501849495.5,286047003.5,N
1501849515.3,286047003.5,N
1501849535.1,286047003.7,N
1501849555.9,286047003.8,N
1501849575.7,286047003.3,N
1501849595.5,286047003.6,N
1501849615.3,286047003.9,N
1501849635.2,286047004.0,N
1501849655.0,286047004.2,N
1501849655.9,286047004.2,N
1501849675.7,286047003.5,N
1501849695.6,286047003.6,N
1501849715.4,286047003.3,N
1501849735.2,286047003.2,N
1501849755.1,286047006.0,N
1501849756.0,286047006.0,N
1501849775.8,286047004.7,N
1501849795.6,286047005.0,N
1501849815.5,286047005.7,N
1501849835.3,286047007.5,N
1501849855.1,286047004.9,N
1501849875.9,286047005.0,N
1501849895.7,286047005.4,N
1501849915.5,286047005.4,N
1501849935.3,286047004.8,N
1501849955.2,286047004.7,N
1501849975.0,286047005.6,N
1501849975.9,286047005.6,N
1501849995.7,286047003.5,N
1501850015.6,286047003.0,N
1501850035.4,286047004.1,N
1501850055.2,286047003.7,N
1501850075.1,286047004.2,N
1501850076.0,286047004.2,N
1501850095.8,286047004.4,N
1501850115.6,286047004.2,N
1501850135.5,286047001.4,N
1501850155.3,286047001.5,N
1501850175.1,286047001.5,N
1501850195.9,286046999.8,N
1501850215.7,286046999.8,N
1501850235.5,286047002.7,N
1501850255.4,286046999.7,N
1501850275.2,286047000.8,N
1501850295.0,286047001.0,N
1501850295.9,286047001.0,N
1501850315.8,286046999.7,N
1501850335.6,286046998.1,N
1501850355.4,286047001.0,N
1501850375.2,286047002.2,N
1501850395.1,286047000.2,N
1501850396.0,286047000.2,N
1501850415.8,286047001.9,N
1501850435.6,286047002.1,N
1501850455.5,286047002.8,N
1501850475.3,286047002.2,N
1501850495.1,286046999.9,N
1501850515.9,286047000.4,N
1501850535.7,286046999.9,N
1501850555.5,286047002.3,N
1501850575.4,286047004.4,N
1501850595.2,286047002.2,N
1501850615.0,286047001.5,N
1501850615.9,286047001.5,N
1501850635.8,286046999.9,N
1501850655.6,286047000.7,N
1501850675.4,286046998.6,N
1501850695.3,286047000.7,N
1501850715.1,286046998.5,N
1501850716.0,286046998.5,N
1501850735.8,286046998.7,N
1501850755.7,286047000.7,N
1501850775.5,286047001.0,N
1501850795.3,286047000.3,N
1501850815.1,286046998.4,N
1501850835.9,286046998.5,N
1501850855.7,286047000.9,N
1501850875.5,286047000.2,N
1501850895.4,286046998.4,N
1501850915.2,286046999.9,N
1501850935.0,286047001.2,N
1501850935.9,286047001.2,N
1501850955.8,286047002.8,N
1501850975.6,286047000.1,N
1501850995.4,286047002.4,N
1501851015.3,286047002.3,N
1501851035.1,286047003.9,N
1501851036.0,286047003.9,N
1501851055.8,286047001.3,N
1501851075.7,286047001.4,N
1501851095.5,286047001.8,N
1501851115.3,286047001.5,N
1501851135.1,286047004.2,N
1501851155.9,286047005.4,N
1501851175.7,286047004.6,N
1501851195.5,286047005.3,N
1501851215.4,286047003.5,N
1501851235.2,286047005.5,N
1501851255.0,286047003.7,N
1501851255.9,286047003.7,N
1501851275.8,286047002.9,N
1501851295.6,286047003.7,N
1501851315.4,286047005.9,N
1501851335.3,286047004.0,N
1501851355.1,286047003.9,N
1501851356.0,286047003.9,N
1501851375.8,286047004.3,N
1501851395.7,286047001.4,N
1501851415.5,286047003.9,N
1501851435.3,286047003.2,N
1501851455.1,286047003.6,N
1501851475.9,286047005.5,N
1501851495.7,286047004.9,N
1501851515.5,286047003.5,N
1501851535.4,286047005.8,N
1501851555.2,286047004.7,N
1501851575.0,286047003.5,N
1501851575.9,286047003.5,N
1501851595.8,286047006.0,N
